Weather History for KEYE - October, 2012

Change the Weather History Date:

Monday, October 29, 2012

  Actual Average Record
Temperature  
Mean Temperature 44 °F 51 °F  
Max Temperature 51 °F 60 °F 77 °F (1999)
Min Temperature 36 °F 42 °F 30 °F (2005)
Degree Days  
Heating Degree Days 21 14  
Month to date heating degree days 350 300  
Since 1 July heating degree days 451 361  
Cooling Degree Days 0 0  
Month to date cooling degree days 1 12  
Year to date cooling degree days 1339 1055  
Moisture  
Dew Point 27 °F    
Average Humidity 50    
Maximum Humidity 70    
Minimum Humidity 29    
Precipitation  
Precipitation 0.00 in 0.09 in 0.62 in (2002)
Month to date precipitation 4.38 2.93  
Year to date precipitation 33.64 33.83  
Sea Level Pressure  
Sea Level Pressure 30.08 in    
Wind  
Wind Speed 17 mph (NNW)    
Max Wind Speed 29 mph    
Max Gust Speed 38 mph    
Visibility 10 miles    
Events      
T = Trace of Precipitation, MM = Missing Value Source: NWS Daily Summary

Daily Weather History Graph

Daily Weather History Graph

Search for Another Location

Airport or City:

Trip Planner

Search our weather history database for the weather conditions in past years. The results will help you decide how hot, cold, wet, or windy it might be!

Date:

Astronomy

Oct. 29, 2012 Rise Set
Actual Time 8:11 AM EDT 6:46 PM EDT
Civil Twilight 7:43 AM EDT 7:13 PM EDT
Nautical Twilight 7:11 AM EDT 7:45 PM EDT
Astronomical Twilight 6:40 AM EDT 8:17 PM EDT
Moon 6:37 PM EDT (10/29) 8:00 AM EDT (10/29)
Length of Visible Light 11h 30m
Length of Day
10h 34m
Full, 100% of the Moon is Illuminated
Oct 29
Full
Oct 29
Full
Nov 6
Last Quarter
Nov 13
New
Nov 20
First Quarter

Hourly Weather History & Observations

Time (EDT) Temp. Windchill Dew Point Humidity Pressure Visibility Wind Dir Wind Speed Gust Speed Precip Events Conditions
12:53 AM 39.9 °F 34.5 °F 30.9 °F 70% 30.15 in 10.0 mi North 8.1 mph - N/A   Clear
1:53 AM 39.0 °F 33.4 °F 30.9 °F 73% 30.15 in 10.0 mi North 8.1 mph - N/A   Clear
2:53 AM 37.0 °F 29.8 °F 28.9 °F 73% 30.14 in 10.0 mi North 10.4 mph - N/A   Clear
3:53 AM 37.0 °F 29.3 °F 27.0 °F 67% 30.14 in 10.0 mi North 11.5 mph - N/A   Clear
4:53 AM 37.0 °F 28.5 °F 26.1 °F 65% 30.14 in 10.0 mi North 13.8 mph - N/A   Clear
5:53 AM 36.0 °F 26.3 °F 26.1 °F 67% 30.14 in 10.0 mi NNW 16.1 mph - N/A   Clear
6:53 AM 36.0 °F 27.5 °F 27.0 °F 70% 30.14 in 10.0 mi North 12.7 mph - N/A   Clear
7:53 AM 36.0 °F 29.0 °F 27.0 °F 70% 30.14 in 10.0 mi North 9.2 mph 21.9 mph N/A   Clear
8:53 AM 36.0 °F 27.5 °F 27.0 °F 70% 30.15 in 10.0 mi North 12.7 mph - N/A   Clear
9:53 AM 39.0 °F 31.4 °F 28.0 °F 65% 30.14 in 10.0 mi NNW 12.7 mph 20.7 mph N/A   Clear
10:53 AM 42.1 °F 34.2 °F 24.1 °F 49% 30.14 in 10.0 mi North 16.1 mph 23.0 mph N/A   Clear
11:53 AM 45.0 °F 36.4 °F 21.0 °F 39% 30.14 in 10.0 mi North 23.0 mph 28.8 mph N/A   Clear
12:53 PM 48.0 °F - 21.0 °F 34% 30.12 in 10.0 mi NNW 23.0 mph 31.1 mph N/A   Clear
1:53 PM 50.0 °F - 21.9 °F 33% 30.09 in 10.0 mi North 23.0 mph 32.2 mph N/A   Clear
2:53 PM 50.0 °F - 19.9 °F 31% 30.06 in 10.0 mi NNW 23.0 mph 34.5 mph N/A   Clear
3:53 PM 48.9 °F - 19.9 °F 32% 30.05 in 10.0 mi North 20.7 mph 36.8 mph N/A   Clear
4:53 PM 48.9 °F - 24.1 °F 38% 30.04 in 10.0 mi NNW 21.9 mph 33.4 mph N/A   Clear
5:53 PM 46.9 °F - 28.0 °F 48% 30.02 in 10.0 mi NNW 18.4 mph 29.9 mph N/A   Clear
6:53 PM 46.0 °F 38.3 °F 30.0 °F 54% 30.01 in 10.0 mi NNW 20.7 mph 28.8 mph N/A   Clear
7:53 PM 45.0 °F 35.6 °F 33.1 °F 63% 29.99 in 10.0 mi NW 27.6 mph 34.5 mph N/A   Clear
8:53 PM 44.1 °F 35.7 °F 34.0 °F 68% 29.97 in 10.0 mi NNW 20.7 mph 28.8 mph N/A   Clear
9:53 PM 43.0 °F 33.8 °F 34.0 °F 71% 29.95 in 10.0 mi NNW 23.0 mph 32.2 mph N/A   Clear
10:53 PM 43.0 °F 34.8 °F 33.1 °F 68% 29.93 in 10.0 mi NNW 18.4 mph 27.6 mph N/A   Clear
11:53 PM 42.1 °F 34.9 °F 32.0 °F 67% 29.90 in 10.0 mi NW 13.8 mph 25.3 mph N/A   Clear